SVJC/LSP METAR and TAF weather

Enter ICAO airport designator
Station Type Date Time Source
SVJC METAR 2018/06/23 10:00 UTC NOAA

SVJC 231000Z NI


Station Type Date Time Source
SVJC Decoded METAR 2018/06/23 10:00 UTC NOAA

Paraguana / Josefa, Venezuela (SVJC) 11-47N 070-09W
Jun 23, 2018 - 06:00 AM EDT / 2018.06.23 1000 UTC
ob: SVJC 231000Z NI
cycle: 10

Station Type Date Time Source
SVJC TAF 2019/04/20 18:45 UTC NOAA

TAF TAF SVJC 201730Z 2018/2118 07013KT 9999 SCT016 TX34/18Z TN25/09Z
TEMPO 2018/2022 09015G18KT 9000 -DZ SCT013 BKN090

Example: see airport list